Location: Bouchavesnes-Bergen
(49.9859°N, 2.9203°E)
Time: 00:06:05
(UTC+00:00)

Cosmos 2251 Rocket - Pass Details

Date: 09 March 2021
Orbit: 764 x 792 km, 74.0° (Epoch: 13 April)

Event Time Altitude Azimuth Distance (km) Brightness Sun altitude
Exits shadow 03:53:53 34° 187° (S) 1,290 4.4 -23.1°
Maximum altitude 03:56:16 73° 111° (ESE) 829 3.7 -22.7°
Drops below altitude 10° 04:01:39 10° 27° (NNE) 2,368 6.7 -21.9°
Sets 04:04:04 0° 26° (NNE) 3,303 7.5 -21.5°
